Powrót do katalogu

MENUT

AktywnyNaukaSSO
NORAD 55010·PAYLOAD·🇪🇸 Spain

Wystrzelony Jan 3, 2023 z Cape Canaveral Space Force Station

Loading…

Następne Przeloty (najbliższe 24 godziny)

TLE

ŚwieżeSource: Space-Track

Epoka: Sep 14, 2026, 15:42 UTC

1 55010U 23001B   26257.65457189  .00133220  00000-0  82285-3 0  9993
2 55010  97.2989 329.2249 0003370 162.6043 197.5339 15.76732299206414

Śledź MENUT w czasie rzeczywistym z AllMySat

Download on the App Store